This demonstration page uses our WeatherBlox Daily Observations layout. Learn more.

41.55636, -103.73856

Hourly Observations for October 1, 2019

Temp ( °F °C ) Dew Point ( °F °C ) Humidity (%) Winds ( mph kmh ) Pressure ( in mb ) Visibility ( mi km ) Precip ( " mm )
12:58 am 00:58 Cloudy 55 12.5 46 8 74 74 NE 14 22 29.91 1013 10 16.0934 0 0
1:58 am 01:58 Cloudy 54 12.2 47 8.1 76 76 NNE 13 20 29.92 1013 10 16.0934 0 0
2:58 am 02:58 Cloudy 53 11.7 46 7.9 78 78 NE 14 22 29.93 1014 10 16.0934 0 0
3:58 am 03:58 Cloudy 49 9.5 44 6.8 83 83 ENE 16 26 29.97 1015 10 16.0934 0 0
4:58 am 04:58 Cloudy 47 8.6 44 6.7 88 88 ENE 15 24 29.98 1015 10 16.0934 0 0
5:58 am 05:58 Cloudy with Light Showers 45 7.1 44 6.4 95 95 ENE 13 20 29.99 1016 6 9.65604 0 0
7:58 am 07:58 Mostly Cloudy 43 6 42 5.5 97 97 ENE 13 20 30 1016 10 16.0934 0 0
8:58 am 08:58 Cloudy with Light Drizzle 42 5.8 42 5.3 97 97 ENE 12 19 29.99 1016 4 6.43736 0 0
9:58 am 09:58 Cloudy with Light Rain 41 5.2 41 4.8 97 97 ENE 9 15 30 1016 3 4.82802 0 0
10:58 am 10:58 Cloudy with Light Showers 41 5 40 4.6 97 97 ENE 8 13 30.01 1016 4 6.43736 0.01 0.254
11:58 am 11:58 Cloudy with Light Showers 41 5 40 4.7 98 98 NE 8 13 30.01 1016 4 6.43736 0 0
12:58 pm 12:58 Cloudy with Mist and Fog 40 4.7 40 4.3 97 97 ENE 9 15 30.02 1017 4 6.43736 0 0
1:58 pm 13:58 Cloudy with Light Rain 40 4.6 40 4.3 98 98 ENE 9 15 30.03 1017 2.25 3.621015 0 0
2:58 pm 14:58 Cloudy with Drizzle 40 4.5 39 4.1 97 97 E 10 17 30.04 1017 2.75 4.425685 0.01 0.254
3:58 pm 15:58 Cloudy with Mist and Fog 41 4.8 40 4.3 97 97 ENE 10 17 30.05 1018 5 8.0467 0 0
4:58 pm 16:58 Cloudy with Mist and Fog 41 4.9 40 4.5 97 97 ENE 12 19 30.05 1018 2.75 4.425685 0 0
5:58 pm 17:58 Cloudy with Light Showers 42 5.3 40 4.6 95 95 E 10 17 30.06 1018 7 11.26538 0 0
6:58 pm 18:58 Cloudy with Light Showers 42 5.8 41 5.2 96 96 ENE 12 19 30.04 1017 3 4.82802 0 0
7:58 pm 19:58 Cloudy with Mist and Fog 43 5.9 41 5.2 95 95 ENE 10 17 30.02 1017 3 4.82802 0 0
8:58 pm 20:58 Cloudy 43 6.3 41 5 91 91 E 14 22 30.01 1016 10 16.0934 0 0
9:58 pm 21:58 Cloudy with Mist and Fog 42 5.6 40 4.6 93 93 ENE 13 20 30.02 1017 6 9.65604 0 0
10:58 pm 22:58 Cloudy 42 5.5 40 4.5 93 93 ENE 13 20 30.04 1017 7 11.26538 0 0
11:58 pm 23:58 Cloudy 41 4.9 39 4 94 94 NE 13 20 30.06 1018 7 11.26538 0 0

Powered by AerisWeather